EW7840 Weather Reports


Display with metric or nautical units.
time (UTC)temp
F
wind
direction
speed
MPH
gust
MPH
rain 1hr
in
rain 24hr
in
rain mn
in
humidity
%
barometer
mb
20260504190555 77 261 2.0 7.0 0.00 0.01 0.01 34 1010.9
20260504190049 77 213 2.0 9.0 0.00 0.01 0.01 32 1011.1
20260504185544 78 217 1.0 5.0 0.00 0.01 0.01 33 1011.1
20260504185038 78 339 1.0 4.0 0.00 0.01 0.01 33 1011.3
20260504184532 77 261 1.0 6.0 0.00 0.01 0.01 35 1011.3
20260504184026 77 185 1.0 6.0 0.00 0.01 0.01 34 1011.4
20260504183520 77 224 2.0 7.0 0.00 0.01 0.01 35 1011.4
20260504183014 77 19 2.0 7.0 0.00 0.01 0.01 34 1011.5
20260504182002 77 64 1.0 9.0 0.00 0.01 0.01 33 1011.7
20260504181456 77 72 2.0 9.0 0.00 0.01 0.01 35 1011.7
20260504180443 76 187 1.0 3.0 0.00 0.01 0.01 35 1011.9
20260504175942 76 0 1.0 5.0 0.00 0.01 0.01 34 1012.0
20260504175427 75 0 2.0 6.0 0.00 0.01 0.01 33 1012.1
20260504174922 75 0 2.0 6.0 0.00 0.01 0.01 38 1012.1
20260504174420 75 0 2.0 13.0 0.00 0.01 0.01 35 1012.2
20260504173906 75 0 2.0 13.0 0.00 0.01 0.01 33 1012.2
20260504173400 75 0 1.0 4.0 0.00 0.01 0.01 36 1012.3
20260504172900 75 0 1.0 4.0 0.00 0.01 0.01 34 1012.4
20260504172357 75 0 1.0 3.0 0.00 0.01 0.01 36 1012.5
20260504171857 74 0 1.0 4.0 0.00 0.01 0.01 36 1012.6
20260504171358 74 0 1.0 6.0 0.00 0.01 0.01 35 1012.6
20260504170855 74 0 1.0 6.0 0.00 0.01 0.01 35 1012.7
20260504170356 74 0 1.0 4.0 0.00 0.01 0.01 35 1012.7
20260504160348 70 0 2.0 8.0 0.00 0.01 0.01 37 1013.4
20260504150840 68 0 1.0 6.0 0.00 0.01 0.01 40 1014.3
20260504140838 64 0 1.0 4.0 0.00 0.01 0.01 45 1014.3
20260504120300 47 0 0.0 2.0 0.00 0.01 0.01 79 1015.3
20260504110655 43 0 0.0 0.0 0.00 0.01 0.01 91 1015.6
20260504110149 43 0 0.0 0.0 0.01 0.01 0.01 91 1015.4
20260504100543 43 0 0.0 0.0 0.01 0.01 0.01 87 1015.3
20260504081905 45 0 0.0 0.0 0.00 0.00 0.00 78 1015.6
20260504081404 45 0 0.0 0.0 0.00 0.00 0.00 80 1015.6
20260504080903 45 0 0.0 0.0 0.00 0.00 0.00 80 1015.6
20260504080400 45 0 0.0 0.0 0.00 0.00 0.00 81 1015.6
20260504070354 44 0 0.0 0.0 0.00 0.00 0.00 84 1015.6
20260504050348 39 0 0.0 0.0 0.00 0.00 0.00 83 1016.1
20260504045848 39 0 0.0 0.0 0.00 0.00 0.00 83 1016.1
20260504045342 39 0 0.0 0.0 0.00 0.00 0.00 82 1016.2
20260504044836 39 0 0.0 0.0 0.00 0.00 0.00 82 1016.2
20260504043824 39 0 0.0 0.0 0.00 0.00 0.00 81 1016.2
20260504043325 39 0 0.0 0.0 0.00 0.00 0.00 81 1016.2
20260504042824 39 0 0.0 0.0 0.00 0.00 0.00 81 1016.2
20260504042324 39 0 0.0 0.0 0.00 0.00 0.00 81 1016.1
20260504041323 40 0 0.0 0.0 0.00 0.00 0.00 80 1016.0
20260504040825 40 0 0.0 0.0 0.00 0.00 0.00 80 1015.9
20260504035320 40 0 0.0 0.0 0.00 0.00 0.00 79 1016.0
20260504034821 40 0 0.0 0.0 0.00 0.00 0.00 78 1016.1
20260504034321 40 0 0.0 0.0 0.00 0.00 0.00 78 1016.1
20260504033818 41 0 0.0 0.0 0.00 0.00 0.00 77 1016.1
20260504033319 41 0 0.0 0.0 0.00 0.00 0.00 76 1016.1
20260504032819 41 0 0.0 0.0 0.00 0.00 0.00 76 1016.1
20260504032317 41 0 0.0 0.0 0.00 0.00 0.00 76 1016.0
20260504031815 41 0 0.0 0.0 0.00 0.00 0.00 75 1016.0
20260504031315 42 0 0.0 0.0 0.00 0.00 0.00 74 1015.9
20260504030815 42 0 0.0 0.0 0.00 0.00 0.00 74 1015.9
20260504030309 42 0 0.0 0.0 0.00 0.00 0.00 73 1015.9
20260504025802 42 0 0.0 0.0 0.00 0.00 0.00 73 1015.8
20260504025257 42 0 0.0 0.0 0.00 0.00 0.00 72 1015.8
20260504024752 42 0 0.0 0.0 0.00 0.00 0.00 72 1015.7
20260504024245 42 0 0.0 0.0 0.00 0.00 0.00 71 1015.7
20260504023739 43 0 0.0 0.0 0.00 0.00 0.00 71 1015.7
20260504023233 43 0 0.0 0.0 0.00 0.00 0.00 71 1015.6
20260504022727 43 0 0.0 0.0 0.00 0.00 0.00 71 1015.7
20260504022221 43 0 0.0 0.0 0.00 0.00 0.00 71 1015.7
20260504021714 44 0 0.0 0.0 0.00 0.00 0.00 71 1015.6
20260504020702 44 0 0.0 0.0 0.00 0.00 0.00 70 1015.5
20260504020157 44 0 0.0 0.0 0.00 0.00 0.00 69 1015.5
20260504015651 45 0 0.0 0.0 0.00 0.00 0.00 69 1015.4
20260504015145 45 0 0.0 0.0 0.00 0.00 0.00 68 1015.3
20260504014646 45 0 0.0 0.0 0.00 0.00 0.00 68 1015.3
20260504014147 46 0 0.0 0.0 0.00 0.00 0.00 68 1015.3
20260504013144 46 0 0.0 0.0 0.00 0.00 0.00 66 1015.1
20260504012645 47 0 0.0 0.0 0.00 0.00 0.00 66 1015.1
20260504011640 48 0 0.0 0.0 0.00 0.00 0.00 61 1014.9
20260504010639 48 0 0.0 0.0 0.00 0.00 0.00 61 1015.0
20260504010135 49 0 0.0 0.0 0.00 0.00 0.00 60 1015.0
20260504004636 51 0 0.0 0.0 0.00 0.00 0.00 56 1014.9
20260504003636 52 0 0.0 0.0 0.00 0.00 0.00 55 1014.8
20260504003137 52 0 0.0 0.0 0.00 0.00 0.00 54 1014.7
20260504002635 53 0 0.0 0.0 0.00 0.00 0.00 51 1014.7
20260504002132 54 0 0.0 0.0 0.00 0.00 0.00 50 1014.7
20260504001633 54 0 0.0 0.0 0.00 0.00 0.00 49 1014.8
20260504001133 55 0 0.0 0.0 0.00 0.00 0.00 46 1014.7
20260504000631 56 0 0.0 0.0 0.00 0.00 0.00 46 1014.7
20260504000131 56 0 0.0 0.0 0.00 0.00 0.00 43 1014.7
20260503235630 57 0 0.0 0.0 0.00 0.00 0.00 40 1014.6
20260503234631 59 0 0.0 0.0 0.00 0.00 0.00 36 1014.5
20260503234130 59 0 0.0 0.0 0.00 0.00 0.00 34 1014.5
20260503233631 60 0 0.0 1.0 0.00 0.00 0.00 33 1014.5
20260503233129 60 0 0.0 1.0 0.00 0.00 0.00 32 1014.5
20260503232627 60 0 0.0 1.0 0.00 0.00 0.00 33 1014.5
20260503232128 61 0 0.0 1.0 0.00 0.00 0.00 31 1014.4
20260503231628 61 0 0.0 1.0 0.00 0.00 0.00 32 1014.4
20260503231128 61 0 0.0 1.0 0.00 0.00 0.00 30 1014.3
20260503230627 61 0 0.0 4.0 0.00 0.00 0.00 31 1014.3
20260503225628 62 0 1.0 3.0 0.00 0.00 0.00 29 1014.2
20260503225128 62 0 0.0 3.0 0.00 0.00 0.00 29 1014.2
20260503224628 62 0 0.0 2.0 0.00 0.00 0.00 30 1014.3
20260503224128 63 0 0.0 1.0 0.00 0.00 0.00 28 1014.3
20260503223627 63 0 0.0 4.0 0.00 0.00 0.00 29 1014.3
20260503222627 64 0 0.0 2.0 0.00 0.00 0.00 28 1014.4
20260503222127 65 0 0.0 2.0 0.00 0.00 0.00 26 1014.4
20260503221627 65 0 0.0 3.0 0.00 0.00 0.00 27 1014.4
20260503220628 65 0 1.0 4.0 0.00 0.00 0.00 27 1014.5
20260503220122 65 0 1.0 4.0 0.00 0.00 0.00 27 1014.5
20260503215615 65 0 1.0 4.0 0.00 0.00 0.00 27 1014.4
20260503213605 65 0 1.0 5.0 0.00 0.00 0.00 28 1014.5
20260503212603 65 0 1.0 5.0 0.00 0.00 0.00 28 1014.7
20260503212104 65 0 1.0 5.0 0.00 0.00 0.00 30 1014.6
20260503211601 65 0 1.0 5.0 0.00 0.00 0.00 29 1014.6
20260503211102 65 0 1.0 5.0 0.00 0.00 0.00 29 1014.6
20260503210603 65 0 1.0 4.0 0.00 0.00 0.00 29 1014.7
20260503210101 65 0 1.0 4.0 0.00 0.00 0.00 29 1014.6
20260503205600 65 0 1.0 5.0 0.00 0.00 0.00 28 1014.7
20260503205100 65 0 1.0 5.0 0.00 0.00 0.00 31 1014.6
20260503204559 65 0 1.0 4.0 0.00 0.00 0.00 30 1014.7
20260503204100 65 0 2.0 9.0 0.00 0.00 0.00 31 1014.8
20260503203557 65 0 2.0 9.0 0.00 0.00 0.00 29 1014.8
20260503203058 65 0 1.0 5.0 0.00 0.00 0.00 33 1014.8
20260503202558 65 192 1.0 4.0 0.00 0.00 0.00 30 1014.8
20260503202052 64 0 1.0 4.0 0.00 0.00 0.00 34 1014.9
20260503201545 64 0 1.0 6.0 0.00 0.00 0.00 30 1015.0
20260503201039 64 0 1.0 6.0 0.00 0.00 0.00 31 1014.8
20260503200534 64 0 2.0 4.0 0.00 0.00 0.00 31 1015.2
20260503200028 64 0 2.0 4.0 0.00 0.00 0.00 30 1015.1
20260503195521 64 0 2.0 6.0 0.00 0.00 0.00 31 1015.3
20260503194510 63 0 0.0 5.0 0.00 0.00 0.00 37 1015.4
20260503193458 63 0 1.0 5.0 0.00 0.00 0.00 31 1015.5
20260503192952 64 0 1.0 5.0 0.00 0.00 0.00 30 1015.7
20260503192446 63 0 1.0 6.0 0.00 0.00 0.00 35 1015.7
20260503191940 63 0 2.0 8.0 0.00 0.00 0.00 37 1015.8
20260503191434 62 0 2.0 8.0 0.00 0.00 0.00 34 1015.9
20260503190928 62 0 1.0 4.0 0.00 0.00 0.00 31 1016.0